Location: Kerguer�zec
(48.4509°N, 4.7600°W)
Time: 23:08:11
(UTC+00:00)

Cosmos 1697 Rocket - Pass Details

Date: 09 April 2020
Orbit: 831 x 845 km, 71.0° (Epoch: 24 May)

Event Time Altitude Azimuth Distance (km) Brightness Sun altitude
Rises 22:49:10 0° 325° (NW) 3,413 7.0 -30.1°
Reaches altitude 10° 22:51:49 10° 316° (NW) 2,474 5.9 -30.3°
Enters shadow 22:56:32 33° 261° (W) 1,394 3.9 -30.6°
